Cedar Rapids, IA

2:48 AM CST on January 19, 2017 (GMT -0600)
The Eastern Iowa Airport

Weather History for KCID - July, 2013

Change the Weather History Date:

Tuesday, July 23, 2013

  Actual Average Record
Temperature  
Mean Temperature 70 °F 73 °F  
Max Temperature 79 °F 83 °F 104 °F (1901)
Min Temperature 61 °F 63 °F 44 °F (1925)
Degree Days  
Heating Degree Days 0 0  
Month to date heating degree days 0 0  
Since 1 June heating degree days 28 29  
Since 1 July heating degree days 0 0  
Cooling Degree Days 5 8  
Month to date cooling degree days 219 184  
Year to date cooling degree days 465 399  
Since 1 June cooling degree days 391 350  
Growing Degree Days 20 (Base 50)    
Moisture  
Dew Point 58 °F    
Average Humidity 68    
Maximum Humidity 93    
Minimum Humidity 42    
Precipitation  
Precipitation 0.00 in 0.13 in 1.63 in (1993)
Month to date precipitation 1.28 3.43  
Year to date precipitation 27.79 19.79  
Sea Level Pressure  
Sea Level Pressure 29.89 in    
Wind  
Wind Speed 9 mph (North)    
Max Wind Speed 17 mph    
Max Gust Speed 22 mph    
Visibility 10 miles    
Events      
T = Trace of Precipitation, MM = Missing Value Source: NWS Daily Summary

Daily Weather History Graph

Daily Weather History Graph

Search for Another Location

Airport or City:

Trip Planner

Search our weather history database for the weather conditions in past years. The results will help you decide how hot, cold, wet, or windy it might be!

Date:

Astronomy

Jul. 23, 2013 Rise Set
Actual Time 5:52 AM CDT 8:33 PM CDT
Civil Twilight 5:19 AM CDT 9:06 PM CDT
Nautical Twilight 4:39 AM CDT 9:46 PM CDT
Astronomical Twilight 3:52 AM CDT 10:32 PM CDT
Moon 8:59 PM CDT (7/23) 7:03 AM CDT (7/23)
Length of Visible Light 15h 46m
Length of Day
14h 41m
Full, 99% of the Moon is Illuminated
Jul 23
Full
Jul 29
Last Quarter
Aug 6
New
Aug 14
First Quarter
Aug 20
Full

Hourly Weather History & Observations

Time (CDT) Temp. Dew Point Humidity Pressure Visibility Wind Dir Wind Speed Gust Speed Precip Events Conditions
12:52 AM 66.0 °F 61.0 °F 84% 29.78 in 10.0 mi West 4.6 mph - N/A   Clear
1:52 AM 66.0 °F 63.0 °F 90% 29.79 in 10.0 mi NNW 4.6 mph - N/A   Mostly Cloudy
2:52 AM 66.9 °F 64.0 °F 90% 29.78 in 10.0 mi NNW 9.2 mph - N/A   Clear
3:52 AM 66.0 °F 62.1 °F 87% 29.80 in 10.0 mi NNW 6.9 mph - N/A   Clear
4:52 AM 64.0 °F 61.0 °F 90% 29.81 in 10.0 mi NW 6.9 mph - N/A   Clear
5:52 AM 62.1 °F 60.1 °F 93% 29.83 in 10.0 mi West 5.8 mph - N/A   Clear
6:52 AM 64.0 °F 61.0 °F 90% 29.85 in 10.0 mi NW 8.1 mph - N/A   Clear
7:52 AM 66.9 °F 60.1 °F 79% 29.86 in 10.0 mi North 12.7 mph - N/A   Clear
8:52 AM 69.1 °F 59.0 °F 70% 29.88 in 10.0 mi North 15.0 mph - N/A   Clear
9:52 AM 71.1 °F 59.0 °F 66% 29.90 in 10.0 mi North 12.7 mph - N/A   Scattered Clouds
10:52 AM 73.0 °F 57.0 °F 57% 29.92 in 10.0 mi North 12.7 mph - N/A   Partly Cloudy
11:52 AM 73.0 °F 55.0 °F 53% 29.92 in 10.0 mi North 13.8 mph - N/A   Clear
12:52 PM 73.0 °F 55.9 °F 55% 29.94 in 10.0 mi North 11.5 mph - N/A   Partly Cloudy
1:52 PM 73.9 °F 55.0 °F 52% 29.93 in 10.0 mi North 11.5 mph - N/A   Mostly Cloudy
2:52 PM 73.9 °F 54.0 °F 50% 29.91 in 10.0 mi North 10.4 mph - N/A   Clear
3:52 PM 77.0 °F 54.0 °F 45% 29.90 in 10.0 mi North 9.2 mph - N/A   Clear
4:52 PM 78.1 °F 54.0 °F 43% 29.90 in 10.0 mi North 8.1 mph - N/A   Clear
5:52 PM 75.9 °F 57.0 °F 52% 29.90 in 10.0 mi North 8.1 mph - N/A   Clear
6:52 PM 73.9 °F 57.0 °F 55% 29.91 in 10.0 mi North 4.6 mph - N/A   Clear
7:52 PM 72.0 °F 55.9 °F 57% 29.91 in 10.0 mi North 8.1 mph - N/A   Clear
8:52 PM 68.0 °F 55.9 °F 65% 29.93 in 10.0 mi NNE 8.1 mph - N/A   Clear
9:04 PM 68.0 °F 55.4 °F 64% 29.94 in 10.0 mi NNE 9.2 mph - N/A   Clear
9:52 PM 66.9 °F 54.0 °F 63% 29.96 in 10.0 mi NNE 6.9 mph - N/A   Clear
10:52 PM 64.9 °F 54.0 °F 68% 29.98 in 10.0 mi NNE 4.6 mph - N/A   Clear
11:52 PM 64.0 °F 55.0 °F 73% 29.98 in 10.0 mi NNE 4.6 mph - N/A   Clear